Regional Weather Roundup
Issued by NWS

Home | Current Version | Previous Version | Text Only | Print | Product List | Glossary On
Versions: 1 2 3 4 5 6 7 8 9 10 11 12 13 14 15 16 17 18 19 20 21 22 23 24 25 26 27 28 29 30 31 32 33 34 35 36 37 38 39 40 41 42 43 44 45 46 47 48 49 50
000
ASUS43 KDTX 222110
RWRMI
MICHIGAN HOURLY REGIONAL WEATHER ROUNDUP
NATIONAL WEATHER SERVICE DETROIT/PONTIAC MI
ISSUED BY NATIONAL WEATHER SERVICE GRAND RAPIDS MI
500 PM EDT THU JUN 22 2017

NOTE: "FAIR" INDICATES FEW OR NO CLOUDS BELOW 12,000 FEET WITH NO
SIGNIFICANT WEATHER AND/OR OBSTRUCTION TO VISIBILITY.

MIZ047>049-052>055-059>063-066>070-074>076-081>083-222200-
SOUTHEAST LOWER MICHIGAN

CITY           SKY/WX    TMP DP  RH WIND       PRES   REMARKS
ADRIAN         CLOUDY    84  69  60 SW10G20   29.85F
ALMA           CLOUDY    81  67  64 SW7       29.80S
ANN ARBOR      CLOUDY    84  68  58 SW16G23   29.84S
BAD AXE        CLOUDY    82  69  65 SW6       29.78S
DETROIT CITY   CLOUDY    86  64  47 SW17G30   29.83R
DETROIT        CLOUDY    87  68  52 SW15G25   29.84S HX  90
FLINT          MOSUNNY   88  60  38 SW15G28   29.81S
GROSSE ILE     CLOUDY    85  67  54 SW10G22   29.82F
HILLSDALE      CLOUDY    79  68  69 SW6       29.86F
HOWELL         CLOUDY    88  61  40 SW13G20   29.83F

CITY           SKY/WX    TMP DP  RH WIND       PRES   REMARKS
JACKSON        CLOUDY    85  68  56 SW18      29.84F
LANSING        CLOUDY    88  65  46 SW15      29.82F HX  90
MASON          CLOUDY    87  66  49 SW8G22    29.82F
MONROE         CLOUDY    86  69  56 SW10G18   29.83F HX  90
MT. CLEMENS    CLOUDY    89  65  45 SW16G23   29.82R HX  90
PONTIAC        CLOUDY    86  64  47 SW13      29.83S
PORT HOPE        N/A     80  69  69 NE7       29.75F
PORT HURON     CLOUDY    82  66  57 S9G16     29.81S
TRI CITIES     CLOUDY    82  71  69 SW10      29.78S
YPSILANTI      CLOUDY    89  69  51 SW17G29   29.84S HX  93
$$
MIZ043>046-050>051-056>058-064>065-071>073-077>080-222200-
SOUTHWEST LOWER MICHIGAN

CITY           SKY/WX    TMP DP  RH WIND       PRES   REMARKS
BATTLE CREEK   CLOUDY    84  69  60 SW14      29.84F
BENTON HARBOR  CLOUDY    87  67  51 SW10      29.79F HX  90
BIG RAPIDS     CLOUDY    78  66  65 SW14G26   29.78F
COLDWATER      CLOUDY    81  68  64 SW8G16    29.85S
HOLLAND        PTSUNNY   83  67  58 SW14      29.80F
GRAND RAPIDS   CLOUDY    84  64  50 W21G26    29.80S
KALAMAZOO      CLOUDY    86  67  52 SW13G22   29.82F
MARSHALL       CLOUDY    84  69  60 SW12G17   29.84F
MOUNT PLEASANT PTSUNNY   80  64  57 SW9G17    29.78S
MUSKEGON       CLOUDY    80  68  66 S14       29.79F
STURGIS        CLOUDY    82  71  69 SW10      29.84F
$$
MIZ016>042-222200-
NORTHERN LOWER MICHIGAN

CITY           SKY/WX    TMP DP  RH WIND       PRES   REMARKS
ALPENA         LGT RAIN  77  70  79 SW5       29.72R
BEAVER ISLAND  CLOUDY    63  63 100 SW13G18   29.70F FOG
BELLAIRE       CLOUDY    76  65  69 CALM      29.69F
CADILLAC       CLOUDY    75  67  76 SW14      29.76F
CHARLEVOIX     RAIN      65  65 100 CALM      29.73F
GAYLORD        CLOUDY    76  64  66 W15       29.74S
HOUGHTON LAKE  CLOUDY    77  66  68 W7        29.77S
MANISTEE       LGT RAIN  73  67  81 SW9G16    29.75S
OSCODA         PTSUNNY   79  67  67 SW8       29.74S
PELLSTON       RAIN      67  64  90 SW8       29.72R FOG
TRAVERSE CITY  CLOUDY    78  66  66 VRB7G16   29.68F
LUDINGTON      LGT RAIN  71  66  83 SW10      29.76F
$$
MIZ007>008-015-222200-
EASTERN UPPER MICHIGAN

CITY           SKY/WX    TMP DP  RH WIND       PRES   REMARKS
KINROSS        LGT RAIN  65  63  93 SW6       29.70F
MACKINAC ISLAN LGT RAIN  61  61 100 SW9       29.69F VSB 3/4
NEWBERRY       CLOUDY    66  65  97 S9        29.67F
S. S. MARIE    CLOUDY    68  63  84 CALM      29.66F
$$
MIZ004>006-011>014-085-222200-
CENTRAL UPPER MICHIGAN

CITY           SKY/WX    TMP DP  RH WIND       PRES   REMARKS
MANISTIQUE     LGT RAIN  63  60  90 SW9       29.67F
ESCANABA       LGT RAIN  68  66  94 S7        29.64F FOG
MENOMINEE      LGT RAIN  69  67  93 S8        29.67F
SAWYER-GWINN   MOSUNNY   68  64  88 W8        29.66F
$$
MIZ001>003-009>011-084-222200-
WESTERN UPPER MICHIGAN

CITY           SKY/WX    TMP DP  RH WIND       PRES   REMARKS
IRON MOUNTAIN  CLOUDY    69  64  84 W8        29.67R
HOUGHTON       CLOUDY    68  55  63 W12       29.65S
COPPER HARBOR    N/A     61  55  81 N13       29.62F
IRONWOOD       CLOUDY    70  50  49 SW10      29.70R
$$

ABBREVIATIONS USED IN REMARKS
   TC - TEMPERATURE IN CELSIUS
  WCI - WIND CHILL INDEX
   HX - HEAT INDEX
  VSB - VISIBILITY





USA.gov is the U.S. government's official web portal to all federal, state and local government web resources and services.